GW1094 Weather Reports


Display with metric or nautical units.
time (UTC)temp
F
wind
direction
speed
MPH
gust
MPH
rain 1hr
in
rain 24hr
in
rain mn
in
humidity
%
barometer
mb
20260904022047 62 194 1.0 1.0 0.00 0.00 0.00 99 4101.4
20260904021542 62 194 1.0 1.0 0.00 0.00 0.00 99 4101.4
20260904021037 62 195 1.0 1.0 0.00 0.00 0.00 99 4101.4
20260904020532 62 194 1.0 1.0 0.00 0.00 0.00 99 4101.4
20260904020027 63 194 1.0 1.0 0.00 0.00 0.00 99 4101.7
20260904015521 63 195 1.0 1.0 0.00 0.00 0.00 99 4101.4
20260904015020 63 195 1.0 1.0 0.00 0.00 0.00 99 4101.1
20260904014514 63 195 1.0 1.0 0.00 0.00 0.00 99 4101.4
20260904014010 63 194 1.0 2.0 0.00 0.00 0.00 99 4101.4
20260904013506 63 195 0.0 1.0 0.00 0.00 0.00 99 4101.4
20260904013002 63 194 1.0 2.0 0.00 0.00 0.00 99 4101.4
20260904012502 64 194 1.0 1.0 0.00 0.00 0.00 99 4101.1
20260904011950 64 195 1.0 1.0 0.00 0.00 0.00 99 4101.1
20260904011446 64 195 1.0 1.0 0.00 0.00 0.00 99 4100.7
20260904010941 64 195 1.0 1.0 0.00 0.00 0.00 99 4101.1
20260904010437 64 195 1.0 1.0 0.00 0.00 0.00 99 4101.1
20260904005932 65 195 0.0 0.0 0.00 0.00 0.00 99 4100.7
20260904005428 65 195 0.0 0.0 0.00 0.00 0.00 99 4100.7
20260904004928 65 195 0.0 0.0 0.00 0.00 0.00 99 4100.7
20260904004424 65 195 0.0 0.0 0.00 0.00 0.00 98 4100.7
20260904003919 65 196 0.0 0.0 0.00 0.00 0.00 97 4100.7
20260904003414 65 196 0.0 0.0 0.00 0.00 0.00 97 4100.4
20260904002910 66 196 0.0 0.0 0.00 0.00 0.00 96 4100.4
20260904002407 66 196 0.0 0.0 0.00 0.00 0.00 94 4100.4
20260904001904 66 196 0.0 0.0 0.00 0.00 0.00 93 4100.4
20260904001401 67 196 0.0 0.0 0.00 0.00 0.00 93 4100.4
20260904000855 67 196 0.0 0.0 0.00 0.00 0.00 93 4100.4
20260904000355 68 196 0.0 0.0 0.00 0.00 0.00 92 4100.4
20260903235855 68 196 0.0 0.0 0.00 0.00 0.00 91 4100.4
20260903235351 69 196 0.0 0.0 0.00 0.00 0.00 90 4100.4
20260903234850 69 196 0.0 0.0 0.00 0.00 0.00 89 4100.4
20260903234346 69 195 0.0 0.0 0.00 0.00 0.00 87 4100.0
20260903233842 70 195 0.0 0.0 0.00 0.00 0.00 86 4100.0
20260903233338 71 195 0.0 0.0 0.00 0.00 0.00 84 4100.0
20260903232837 71 195 0.0 0.0 0.00 0.00 0.00 83 4100.0
20260903232333 71 195 0.0 0.0 0.00 0.00 0.00 82 4100.0
20260903231832 72 195 0.0 0.0 0.00 0.00 0.00 81 4100.0
20260903231328 72 195 0.0 0.0 0.00 0.00 0.00 80 4100.0
20260903230823 73 195 0.0 0.0 0.00 0.00 0.00 79 4100.0
20260903230318 73 195 0.0 0.0 0.00 0.00 0.00 77 4099.7
20260903225814 74 196 0.0 0.0 0.00 0.00 0.00 75 4099.7
20260903225310 75 196 0.0 0.0 0.00 0.00 0.00 73 4099.7
20260903224806 75 196 0.0 0.0 0.00 0.00 0.00 73 4099.4
20260903224302 75 196 0.0 0.0 0.00 0.00 0.00 72 4099.4
20260903223758 75 194 0.0 0.0 0.00 0.00 0.00 72 4099.4
20260903223256 76 195 0.0 0.0 0.00 0.00 0.00 71 4099.4
20260903222751 76 198 1.0 2.0 0.00 0.00 0.00 70 4099.4
20260903222250 77 189 1.0 1.0 0.00 0.00 0.00 70 4099.0
20260903221745 78 192 1.0 2.0 0.00 0.00 0.00 71 4099.4
20260903221244 79 193 1.0 1.0 0.00 0.00 0.00 69 4099.4
20260903220742 78 196 0.0 1.0 0.00 0.00 0.00 68 4099.4
20260903220237 78 188 0.0 1.0 0.00 0.00 0.00 69 4099.4
20260903215736 77 187 0.0 0.0 0.00 0.00 0.00 70 4099.4
20260903215232 76 187 0.0 0.0 0.00 0.00 0.00 72 4099.4
20260903214729 76 187 0.0 0.0 0.00 0.00 0.00 74 4099.4
20260903214220 76 187 1.0 2.0 0.00 0.00 0.00 76 4099.4
20260903213714 76 187 2.0 2.0 0.00 0.00 0.00 68 4099.4
20260903213211 76 187 2.0 3.0 0.00 0.00 0.00 67 4099.4
20260903212706 75 187 0.0 0.0 0.00 0.00 0.00 70 4099.7
20260903212203 75 187 0.0 0.0 0.00 0.00 0.00 71 4099.4
20260903211701 74 187 1.0 1.0 0.00 0.00 0.00 73 4099.4
20260903211158 75 187 1.0 1.0 0.00 0.00 0.00 69 4099.7
20260903210654 75 187 1.0 1.0 0.00 0.00 0.00 74 4099.7
20260903210149 74 187 1.0 1.0 0.00 0.00 0.00 73 4100.0
20260903205643 73 187 1.0 1.0 0.00 0.00 0.00 79 4100.0
20260903205142 72 187 2.0 2.0 0.00 0.00 0.00 85 4099.7
20260903204638 73 187 3.0 3.0 0.00 0.00 0.00 87 4100.0
20260903204134 74 187 3.0 3.0 0.00 0.00 0.00 77 4100.0
20260903203629 75 187 3.0 3.0 0.00 0.00 0.00 67 4100.4
20260903203124 75 186 3.0 3.0 0.00 0.00 0.00 68 4100.4
20260903202619 74 189 1.0 1.0 0.00 0.00 0.00 66 4100.4
20260903202114 74 189 1.0 1.0 0.00 0.00 0.00 77 4100.4
20260903201609 73 192 1.0 1.0 0.00 0.00 0.00 77 4100.4
20260903201108 73 189 1.0 1.0 0.00 0.00 0.00 80 4100.4
20260903200603 75 189 2.0 2.0 0.00 0.00 0.00 77 4100.7
20260903200058 76 211 2.0 2.0 0.00 0.00 0.00 66 4100.4
20260903195549 76 189 1.0 2.0 0.00 0.00 0.00 66 4100.4
20260903195044 75 174 3.0 3.0 0.00 0.00 0.00 68 4101.1
20260903194539 75 185 0.0 0.0 0.00 0.00 0.00 63 4101.1
20260903194034 73 185 0.0 0.0 0.00 0.00 0.00 77 4101.1
20260903193531 73 185 0.0 0.0 0.00 0.00 0.00 81 4101.1
20260903193025 73 185 0.0 0.0 0.00 0.00 0.00 80 4101.4
20260903192517 73 184 0.0 0.0 0.00 0.00 0.00 79 4101.4
20260903192016 73 185 1.0 1.0 0.00 0.00 0.00 84 4101.4
20260903191513 73 185 1.0 1.0 0.00 0.00 0.00 83 4101.4
20260903191013 73 185 0.0 0.0 0.00 0.00 0.00 83 4101.4
20260903190507 72 185 0.0 0.0 0.00 0.00 0.00 84 4101.7
20260903190001 72 185 0.0 0.0 0.00 0.00 0.00 82 4101.7
20260903185457 71 185 0.0 0.0 0.00 0.00 0.00 87 4101.7
20260903184956 71 184 0.0 0.0 0.00 0.00 0.00 84 4101.7
20260903184453 71 184 0.0 0.0 0.00 0.00 0.00 85 4101.7
20260903183948 71 184 0.0 0.0 0.00 0.00 0.00 85 4101.7
20260903183442 71 184 0.0 0.0 0.00 0.00 0.00 85 4101.7
20260903182942 71 184 0.0 0.0 0.00 0.00 0.00 85 4101.7
20260903182440 71 184 0.0 0.0 0.00 0.00 0.00 86 4101.4
20260903181936 70 184 0.0 0.0 0.00 0.00 0.00 90 4101.7
20260903181430 70 184 0.0 0.0 0.00 0.00 0.00 91 4101.7
20260903180930 70 184 0.0 0.0 0.00 0.00 0.00 92 4101.7
20260903180425 69 184 0.0 0.0 0.00 0.00 0.00 92 4101.7
20260903175924 69 184 2.0 2.0 0.00 0.00 0.00 92 4101.7
20260903175419 70 185 1.0 2.0 0.00 0.00 0.00 92 4101.4
20260903174913 70 185 1.0 1.0 0.00 0.00 0.00 91 4101.4
20260903174409 69 185 0.0 1.0 0.00 0.00 0.00 91 4101.4
20260903173909 70 183 2.0 2.0 0.00 0.00 0.00 90 4101.1
20260903173403 69 183 2.0 2.0 0.00 0.00 0.00 92 4101.4
20260903172859 69 183 3.0 3.0 0.00 0.00 0.00 93 4101.1
20260903172359 69 207 2.0 2.0 0.00 0.00 0.00 95 4101.1
20260903171855 69 211 3.0 3.0 0.00 0.00 0.00 93 4101.1
20260903171350 68 215 2.0 2.0 0.00 0.00 0.00 92 4100.7
20260903170849 68 217 2.0 2.0 0.00 0.00 0.00 91 4100.7
20260903170344 69 221 3.0 3.0 0.00 0.00 0.00 92 4100.4
20260903165842 69 224 3.0 3.0 0.00 0.00 0.00 91 4100.4
20260903165337 68 226 3.0 3.0 0.00 0.00 0.00 89 4100.7
20260903164832 68 228 4.0 5.0 0.00 0.00 0.00 90 4100.4
20260903164327 68 226 4.0 5.0 0.00 0.00 0.00 91 4100.4
20260903163826 68 222 5.0 5.0 0.00 0.00 0.00 91 4100.4
20260903163323 68 221 4.0 5.0 0.00 0.00 0.00 92 4100.7
20260903162819 68 232 4.0 5.0 0.00 0.00 0.00 92 4100.7
20260903162315 68 218 3.0 5.0 0.00 0.00 0.00 93 4100.7
20260903161811 68 210 3.0 3.0 0.00 0.00 0.00 93 4100.7
20260903161306 67 228 4.0 6.0 0.00 0.00 0.00 93 4100.7
20260903160802 68 230 5.0 6.0 0.00 0.00 0.00 92 4100.7
20260903160301 69 213 3.0 3.0 0.00 0.00 0.00 91 4100.7
20260903155759 68 211 2.0 2.0 0.00 0.00 0.00 91 4100.7
20260903155254 68 218 3.0 3.0 0.00 0.00 0.00 92 4100.7
20260903154749 68 230 5.0 6.0 0.00 0.00 0.00 92 4101.1
20260903154246 67 241 5.0 6.0 0.00 0.00 0.00 95 4101.1
20260903153741 67 232 5.0 6.0 0.00 0.00 0.00 95 4100.7
20260903153237 68 231 5.0 6.0 0.00 0.00 0.00 94 4101.1
20260903152733 68 228 4.0 6.0 0.00 0.00 0.00 94 4101.1
20260903152229 67 214 3.0 3.0 0.00 0.00 0.00 95 4101.1
20260903151728 67 224 4.0 5.0 0.00 0.00 0.00 95 4101.1
20260903151224 67 227 4.0 5.0 0.00 0.00 0.00 95 4101.1
20260903150719 67 229 5.0 5.0 0.00 0.00 0.00 95 4101.1
20260903150213 67 215 3.0 3.0 0.00 0.00 0.00 97 4101.1
20260903145708 67 214 2.0 3.0 0.00 0.00 0.00 97 4101.1
20260903145203 67 228 5.0 5.0 0.00 0.00 0.00 95 4101.1
20260903144702 67 222 4.0 5.0 0.00 0.00 0.00 95 4101.1
20260903144158 68 219 4.0 5.0 0.00 0.00 0.00 94 4100.7
20260903143654 68 138 0.0 0.0 0.00 0.00 0.00 93 4101.1
20260903143149 69 140 0.0 0.0 0.00 0.00 0.00 93 4100.7
20260903142645 70 137 0.0 0.0 0.00 0.00 0.00 92 4101.1
20260903142141 71 116 0.0 0.0 0.00 0.00 0.00 88 4101.1
20260903141636 71 118 0.0 0.0 0.00 0.00 0.00 85 4101.1
20260903141131 70 119 0.0 0.0 0.00 0.00 0.00 87 4101.1
20260903140627 69 112 0.0 0.0 0.00 0.00 0.00 88 4101.1
20260903140122 69 121 0.0 0.0 0.00 0.00 0.00 90 4101.1
20260903135619 69 79 0.0 0.0 0.00 0.00 0.00 88 4101.1
20260903135118 69 74 0.0 0.0 0.00 0.00 0.00 87 4101.1
20260903134617 68 74 0.0 0.0 0.00 0.00 0.00 89 4101.1
20260903134114 67 71 0.0 0.0 0.00 0.00 0.00 91 4100.7
20260903133611 68 70 0.0 0.0 0.00 0.00 0.00 92 4100.7
20260903133107 67 73 0.0 0.0 0.00 0.00 0.00 96 4100.7
20260903132602 66 70 0.0 0.0 0.00 0.00 0.00 99 4100.7
20260903132102 65 70 0.0 0.0 0.00 0.00 0.00 99 4100.7
20260903131556 64 70 0.0 0.0 0.00 0.00 0.00 99 4100.7
20260903131055 64 70 0.0 0.0 0.00 0.00 0.00 99 4100.7
20260903130550 63 70 0.0 0.0 0.00 0.00 0.00 99 4101.1
20260903130045 62 70 0.0 0.0 0.00 0.00 0.00 99 4101.1
20260903125543 62 70 0.0 0.0 0.00 0.00 0.00 99 4101.1
20260903125039 61 68 0.0 0.0 0.00 0.00 0.00 99 4100.7
20260903124538 61 68 0.0 0.0 0.00 0.00 0.00 99 4101.1
20260903124033 61 68 0.0 0.0 0.00 0.00 0.00 99 4100.7
20260903123532 61 69 0.0 0.0 0.00 0.00 0.00 99 4100.7
20260903123031 60 69 0.0 0.0 0.00 0.00 0.00 99 4101.1
20260903122530 60 69 0.0 0.0 0.00 0.00 0.00 99 4101.1
20260903122025 60 69 0.0 0.0 0.00 0.00 0.00 99 4101.1
20260903121520 60 69 0.0 0.0 0.00 0.00 0.00 99 4101.1
20260903121016 59 69 0.0 0.0 0.00 0.00 0.00 99 4101.1
20260903120514 59 69 0.0 0.0 0.00 0.00 0.00 99 4101.1
20260903120009 59 69 0.0 0.0 0.00 0.00 0.00 99 4101.1
20260903115507 59 69 0.0 0.0 0.00 0.00 0.00 99 4100.7
20260903115002 59 69 0.0 0.0 0.00 0.00 0.00 99 4100.7
20260903114457 59 69 0.0 0.0 0.00 0.00 0.00 99 4100.7
20260903113953 59 70 0.0 0.0 0.00 0.00 0.00 99 4100.7
20260903113449 59 70 0.0 0.0 0.00 0.00 0.00 99 4100.7
20260903112944 59 70 0.0 0.0 0.00 0.00 0.00 99 4100.7
20260903112440 59 70 0.0 0.0 0.00 0.00 0.00 99 4100.7
20260903111939 58 70 0.0 0.0 0.00 0.00 0.00 99 4100.4
20260903111433 58 70 0.0 0.0 0.00 0.00 0.00 99 4100.4
20260903110929 58 70 0.0 0.0 0.00 0.00 0.00 99 4100.4
20260903110424 59 70 0.0 0.0 0.00 0.00 0.00 99 4100.4
20260903105919 59 70 0.0 0.0 0.00 0.00 0.00 99 4100.4
20260903105409 59 70 0.0 0.0 0.00 0.00 0.00 99 4100.4
20260903104909 59 70 0.0 0.0 0.00 0.00 0.00 99 4100.4
20260903104403 59 70 0.0 0.0 0.00 0.00 0.00 99 4100.4
20260903103900 59 71 0.0 0.0 0.00 0.00 0.00 99 4100.4
20260903103356 59 71 0.0 0.0 0.00 0.00 0.00 99 4100.4
20260903102851 60 71 0.0 0.0 0.00 0.00 0.00 99 4100.4
20260903102350 60 71 0.0 0.0 0.00 0.00 0.00 99 4100.4
20260903101845 60 71 0.0 0.0 0.00 0.00 0.00 99 4100.4
20260903101340 60 71 0.0 0.0 0.00 0.00 0.00 99 4100.4
20260903100836 60 71 0.0 0.0 0.00 0.00 0.00 99 4100.4
20260903100336 60 71 0.0 0.0 0.00 0.00 0.00 99 4100.4
20260903095832 60 71 0.0 0.0 0.00 0.00 0.00 99 4100.4
20260903095327 60 71 0.0 0.0 0.00 0.00 0.00 99 4100.4
20260903094822 60 72 0.0 0.0 0.00 0.00 0.00 99 4100.4
20260903094317 60 73 0.0 0.0 0.00 0.00 0.00 99 4100.4
20260903093812 60 73 0.0 0.0 0.00 0.00 0.00 99 4100.4
20260903093307 60 72 0.0 0.0 0.00 0.00 0.00 99 4100.4
20260903092802 60 72 0.0 0.0 0.00 0.00 0.00 99 4100.4
20260903092257 61 72 0.0 0.0 0.00 0.00 0.00 99 4100.4
20260903091755 61 72 0.0 0.0 0.00 0.00 0.00 99 4100.4
20260903091244 61 73 0.0 0.0 0.00 0.00 0.00 99 4100.4
20260903090740 61 75 0.0 0.0 0.00 0.00 0.00 99 4100.4
20260903090238 61 75 0.0 0.0 0.00 0.00 0.00 99 4100.4
20260903085732 61 75 0.0 0.0 0.00 0.00 0.00 99 4100.4
20260903085227 61 75 0.0 0.0 0.00 0.00 0.00 99 4100.4
20260903084724 61 75 0.0 0.0 0.00 0.00 0.00 99 4100.4
20260903084220 61 75 0.0 0.0 0.00 0.00 0.00 99 4100.4
20260903083715 61 74 0.0 0.0 0.00 0.00 0.00 99 4100.4
20260903083209 61 74 0.0 0.0 0.00 0.00 0.00 99 4100.4
20260903082703 61 74 0.0 0.0 0.00 0.00 0.00 99 4100.4
20260903082200 61 74 0.0 0.0 0.00 0.00 0.00 99 4100.4
20260903081659 61 74 0.0 0.0 0.00 0.00 0.00 99 4100.0
20260903081155 61 74 0.0 0.0 0.00 0.00 0.00 99 4100.4
20260903080651 61 74 0.0 0.0 0.00 0.00 0.00 99 4100.0
20260903080149 61 74 0.0 0.0 0.00 0.00 0.00 99 4100.0
20260903075648 61 74 0.0 0.0 0.00 0.00 0.00 99 4100.4
20260903075143 61 74 0.0 0.0 0.00 0.00 0.00 99 4100.0
20260903074642 61 74 0.0 0.0 0.00 0.00 0.00 99 4100.0
20260903074138 61 74 0.0 0.0 0.00 0.00 0.00 99 4100.0
20260903073638 61 74 0.0 0.0 0.00 0.00 0.00 99 4100.0
20260903073133 61 74 0.0 0.0 0.00 0.00 0.00 99 4100.0
20260903072629 61 74 0.0 0.0 0.00 0.00 0.00 99 4100.0
20260903072125 61 74 0.0 0.0 0.00 0.00 0.00 99 4099.7
20260903071622 61 74 0.0 0.0 0.00 0.00 0.00 99 4100.0
20260903071117 60 74 0.0 0.0 0.00 0.00 0.00 99 4100.0
20260903070611 60 74 0.0 0.0 0.00 0.00 0.00 99 4100.0
20260903070107 60 74 0.0 0.0 0.00 0.00 0.00 99 4100.0
20260903065606 60 74 0.0 0.0 0.00 0.00 0.00 99 4100.0
20260903065101 60 74 0.0 0.0 0.00 0.00 0.00 99 4099.7
20260903064601 60 74 0.0 0.0 0.00 0.00 0.00 99 4099.7
20260903064056 60 74 0.0 0.0 0.00 0.00 0.00 99 4100.0
20260903063551 60 74 0.0 0.0 0.00 0.00 0.00 99 4099.4
20260903063047 60 74 0.0 0.0 0.00 0.00 0.00 99 4100.0
20260903062542 60 73 0.0 0.0 0.00 0.00 0.00 99 4099.7
20260903062037 60 74 0.0 0.0 0.00 0.00 0.00 99 4099.7
20260903061532 60 74 0.0 0.0 0.00 0.00 0.00 99 4099.7
20260903061032 60 73 0.0 0.0 0.00 0.00 0.00 99 4099.7
20260903060532 60 73 0.0 0.0 0.00 0.00 0.00 99 4099.7
20260903060027 60 74 0.0 0.0 0.00 0.00 0.00 99 4099.4
20260903055524 61 74 0.0 0.0 0.00 0.00 0.00 99 4099.4
20260903055023 61 74 0.0 0.0 0.00 0.00 0.00 99 4099.4
20260903054519 61 74 0.0 0.0 0.00 0.00 0.00 99 4099.7
20260903054015 61 74 0.0 0.0 0.00 0.00 0.00 99 4099.4
20260903053514 61 74 0.0 0.0 0.00 0.00 0.00 99 4099.4
20260903053011 61 74 0.0 0.0 0.00 0.00 0.00 99 4099.4
20260903052506 61 74 0.0 0.0 0.00 0.00 0.00 99 4099.4
20260903052002 61 74 0.0 0.0 0.00 0.00 0.00 99 4099.7
20260903051456 61 74 0.0 0.0 0.00 0.00 0.00 99 4099.4
20260903050952 61 74 0.0 0.0 0.00 0.00 0.00 99 4099.4
20260903050451 61 74 0.0 0.0 0.00 0.00 0.00 99 4099.4
20260903045946 62 74 0.0 0.0 0.00 0.00 0.00 99 4099.4
20260903045441 62 74 0.0 0.0 0.00 0.00 0.00 99 4099.7
20260903044938 62 74 0.0 0.0 0.00 0.00 0.00 99 4099.7
20260903044433 62 74 0.0 0.0 0.00 0.00 0.00 99 4099.4
20260903043929 62 74 0.0 0.0 0.00 0.00 0.00 99 4099.4
20260903043425 62 74 0.0 0.0 0.00 0.00 0.00 99 4099.4
20260903042923 62 74 0.0 0.0 0.00 0.00 0.00 99 4099.4
20260903042419 62 74 0.0 0.0 0.00 0.00 0.00 99 4099.4
20260903041914 62 74 0.0 0.0 0.00 0.00 0.00 99 4099.0
20260903041410 62 74 0.0 0.0 0.00 0.00 0.00 99 4099.0
20260903040906 62 74 0.0 0.0 0.00 0.00 0.00 99 4099.4
20260903040405 63 74 0.0 0.0 0.00 0.00 0.00 99 4099.4
20260903035901 63 74 0.0 0.0 0.00 0.03 0.03 99 4099.0
20260903035356 63 74 0.0 0.0 0.00 0.03 0.03 99 4099.4
20260903034851 64 74 0.0 0.0 0.00 0.03 0.03 99 4099.0
20260903034347 64 74 0.0 0.0 0.00 0.03 0.03 99 4099.0
20260903033842 64 74 0.0 0.0 0.00 0.03 0.03 99 4099.0
20260903033337 64 74 0.0 0.0 0.00 0.03 0.03 99 4099.4
20260903032837 64 74 0.0 0.0 0.00 0.03 0.03 99 4099.4
20260903032333 64 74 0.0 0.0 0.00 0.03 0.03 99 4099.4
20260903031828 64 74 0.0 0.0 0.00 0.03 0.03 99 4099.4
20260903031327 64 74 0.0 0.0 0.00 0.03 0.03 99 4099.4
20260903030823 65 74 0.0 0.0 0.00 0.03 0.03 99 4099.4
20260903030319 65 74 0.0 0.0 0.00 0.03 0.03 99 4099.4
20260903025814 65 74 0.0 0.0 0.00 0.03 0.03 99 4099.4
20260903025309 65 74 0.0 0.0 0.00 0.03 0.03 99 4099.4
20260903024804 65 74 0.0 0.0 0.00 0.03 0.03 99 4099.0
20260903024304 65 74 0.0 0.0 0.00 0.03 0.03 99 4099.4
20260903023759 65 74 0.0 0.0 0.00 0.03 0.03 99 4099.4
20260903023255 65 74 0.0 0.0 0.00 0.03 0.03 99 4099.4
20260903022754 65 74 0.0 0.0 0.00 0.03 0.03 99 4099.0